Regional Weather Roundup
Issued by NWS

Home | Current Version | Previous Version | Graphics & Text | Print | Product List | Glossary On
Versions: 1 2 3 4 5 6 7 8 9 10 11 12 13 14 15 16 17 18 19 20 21 22 23 24 25 26 27 28 29 30 31 32 33 34 35 36 37 38 39 40 41 42 43 44 45 46 47 48 49 50
000
ASUS43 KTOP 310208
RWRKS

WEATHER ROUNDUP FOR KANSAS
NATIONAL WEATHER SERVICE GOODLAND KS
900 PM CDT TUE AUG 30 2016

NOTE:  "FAIR" INDICATES FEW OR NO CLOUDS BELOW 12,000 FEET WITH NO
SIGNIFICANT WEATHER AND/OR OBSTRUCTIONS TO VISIBILITY.

KSZ001>006-013>018-027>032-041>047-310300-
NORTHWEST KANSAS

CITY           SKY/WX    TMP DP  RH WIND       PRES   REMARKS
GOODLAND       TSTM      63  56  78 S9        30.23R
HAYS           CLOUDY    70  61  73 E10       30.19R
HILL CITY      CLOUDY    72  67  84 E6        30.19R
RUSSELL        LGT RAIN  69  67  93 N5        30.18R
$$

KSZ061>065-074>080-084>089-310300-
SOUTHWEST KANSAS

CITY           SKY/WX    TMP DP  RH WIND       PRES   REMARKS
DODGE CITY     MOCLDY    69  66  90 CALM      30.20R
ELKHART          N/A     69  62  78 E6          N/A
GARDEN CITY    CLOUDY    70  66  87 SE7       30.19R
GREAT BEND     CLOUDY    72  63  73 E6        30.18R
LIBERAL        CLOUDY    70  61  73 CALM      30.21R
PRATT          CLOUDY    69  66  90 N6        30.15S
$$

KSZ066>073-081>083-090>101-310300-
SOUTHEAST KANSAS

CITY           SKY/WX    TMP DP  RH WIND       PRES   REMARKS
CHANUTE        CLOUDY    77  69  76 E12       30.11R
COFFEYVILLE    MOCLDY    78  67  68 E6        30.05R
HUTCHINSON     RAIN      71  69  93 N3        30.15F
MEDICINE LODGE   N/A     74  68  81 N7        30.11R
NEWTON         LGT RAIN  70  69  97 N7        30.14F
PARSONS        TSTM      76  69  79 VRB5      30.07R
WICHITA INTL   CLOUDY    74  69  85 N10       30.12S
WICHITA JABRA  CLOUDY    70  69  97 NE7       30.13R
WICHITA MCCONL CLOUDY    72  68  88 NE10      30.13R
WINFIELD       PTCLDY    76  69  79 NE15      30.11R
$$

KSZ007>012-019>026-033>040-048>060-102>105-310300-
NORTHEAST KANSAS

CITY           SKY/WX    TMP DP  RH WIND       PRES   REMARKS
CONCORDIA      LGT RAIN  71  69  93 CALM      30.18R
EMPORIA        LGT RAIN  76  74  93 W5        30.12R
LAWRENCE       MOCLDY    75  75 100 N3        30.10R
MANHATTAN      CLOUDY    74  72  93 CALM      30.13R
MARYSVILLE     LGT RAIN  72  72 100 CALM      30.16R
OLATHE IND     CLOUDY    72  70  93 VRB3      30.12F THUNDER
OLATHE EXE     LGT RAIN  72  71  97 SE5       30.12R
SALINA         MOCLDY    73  71  93 CALM      30.16R
TOPEKA BILLARD CLOUDY    78  73  84 N5        30.11R
TOPEKA FORBES  CLOUDY    79  73  82 N6        30.11S
$$




USA.gov is the U.S. government's official web portal to all federal, state and local government web resources and services.